Goldsboro, NC

1:06 PM EDT on April 26, 2017 (GMT -0400)
Seymour Johnson Air Force Base

Weather History for KGSB - August, 2013

Change the Weather History Date:

Saturday, August 17, 2013

  Actual Average Record
Temperature  
Mean Temperature 72 °F -  
Max Temperature 80 °F 87 °F 102 °F (1997)
Min Temperature 65 °F 68 °F 64 °F (2004)
Cooling Degree Days 7    
Growing Degree Days 22 (Base 50)    
Moisture  
Dew Point 71 °F    
Average Humidity 96    
Maximum Humidity 100    
Minimum Humidity 81    
Precipitation  
Precipitation 2.07 in - - ()
Sea Level Pressure  
Sea Level Pressure 30.10 in    
Wind  
Wind Speed 6 mph (NE)    
Max Wind Speed 14 mph    
Max Gust Speed 18 mph    
Visibility 8 miles    
Events Fog , Rain    
Averages and records for this station are not official NWS values.
T = Trace of Precipitation, MM = Missing Value Source: NWS Daily Summary

Daily Weather History Graph

Daily Weather History Graph

Search for Another Location

Airport or City:

Trip Planner

Search our weather history database for the weather conditions in past years. The results will help you decide how hot, cold, wet, or windy it might be!

Date:

Astronomy

Aug. 17, 2013 Rise Set
Actual Time 6:33 AM EDT 7:58 PM EDT
Civil Twilight 6:06 AM EDT 8:24 PM EDT
Nautical Twilight 5:34 AM EDT 8:56 PM EDT
Astronomical Twilight 5:00 AM EDT 9:30 PM EDT
Moon 5:08 PM EDT (8/17) 2:38 AM EDT (8/17)
Length of Visible Light 14h 18m
Length of Day
13h 24m
Waxing Gibbous, 84% of the Moon is Illuminated
Aug 17
Waxing Gibbous
Aug 20
Full
Aug 28
Last Quarter
Sep 5
New
Sep 12
First Quarter

Hourly Weather History & Observations

Time (EDT) Temp. Dew Point Humidity Pressure Visibility Wind Dir Wind Speed Gust Speed Precip Events Conditions
12:58 AM 66.0 °F 63.3 °F 91% 30.14 in 10.0 mi NNE 4.6 mph - N/A   Overcast
1:58 AM 66.0 °F 63.0 °F 90% 30.13 in 10.0 mi NE 2.3 mph - N/A   Mostly Cloudy
2:10 AM 66.2 °F 64.4 °F 94% 30.12 in 10.0 mi NE 4.6 mph - N/A Rain Light Rain
2:31 AM 66.2 °F 64.4 °F 94% 30.12 in 10.0 mi ENE 2.3 mph - N/A   Mostly Cloudy
2:52 AM 66.2 °F 64.4 °F 94% 30.11 in 10.0 mi NE 4.6 mph - N/A   Overcast
2:58 AM 65.8 °F 64.6 °F 96% 30.12 in 10.0 mi NE 4.6 mph - 0.01 in   Overcast
3:10 AM 66.2 °F 64.4 °F 94% 30.11 in 10.0 mi NNE 5.8 mph - N/A   Mostly Cloudy
3:13 AM 66.2 °F 64.4 °F 94% 30.11 in 10.0 mi NNE 4.6 mph - N/A   Mostly Cloudy
3:16 AM 66.2 °F 64.4 °F 94% 30.11 in 10.0 mi North 5.8 mph - N/A   Mostly Cloudy
3:58 AM 66.2 °F 64.2 °F 93% 30.11 in 10.0 mi NE 4.6 mph - N/A   Mostly Cloudy
4:19 AM 66.2 °F 64.4 °F 94% 30.10 in 10.0 mi NE 3.5 mph - N/A   Overcast
4:42 AM 66.2 °F 64.4 °F 94% 30.10 in 10.0 mi NNE 3.5 mph - N/A Rain Light Rain
4:52 AM 66.2 °F 64.4 °F 94% 30.10 in 10.0 mi NE 4.6 mph - N/A   Overcast
4:58 AM 66.6 °F 64.6 °F 93% 30.11 in 10.0 mi NE 4.6 mph - 0.00 in   Overcast
5:00 AM 66.2 °F 64.4 °F 94% 30.10 in 10.0 mi NE 4.6 mph - N/A Rain Light Rain
5:03 AM 66.2 °F 64.4 °F 94% 30.10 in 10.0 mi NE 4.6 mph - N/A Rain Light Rain
5:09 AM 66.2 °F 64.4 °F 94% 30.10 in 10.0 mi NE 5.8 mph - N/A   Overcast
5:47 AM 66.2 °F 66.2 °F 100% 30.10 in 10.0 mi NE 6.9 mph - N/A Rain Light Rain
5:58 AM 66.7 °F 65.8 °F 97% 30.12 in 9.0 mi NE 5.8 mph - 0.00 in Rain Light Rain
6:02 AM 66.2 °F 66.2 °F 100% 30.11 in 10.0 mi NE 5.8 mph - N/A   Overcast
6:17 AM 66.2 °F 66.2 °F 100% 30.11 in 10.0 mi NE 6.9 mph - N/A   Overcast
6:29 AM 66.2 °F 66.2 °F 100% 30.11 in 10.0 mi NNE 5.8 mph - N/A   Overcast
6:58 AM 66.9 °F 66.4 °F 98% 30.12 in 10.0 mi NNE 6.9 mph - 0.00 in   Overcast
7:04 AM 66.2 °F 66.2 °F 100% 30.11 in 10.0 mi NNE 5.8 mph - N/A   Overcast
7:34 AM 68.0 °F 66.2 °F 94% 30.11 in 10.0 mi NNE 8.1 mph - N/A   Overcast
7:58 AM 67.8 °F 67.1 °F 98% 30.13 in 10.0 mi NE 5.8 mph - N/A   Overcast
8:13 AM 68.0 °F 68.0 °F 100% 30.12 in 10.0 mi NE 5.8 mph - N/A   Overcast
8:19 AM 68.0 °F 68.0 °F 100% 30.12 in 10.0 mi NE 8.1 mph - N/A   Overcast
8:58 AM 68.9 °F 68.4 °F 98% 30.13 in 10.0 mi NNE 5.8 mph - N/A   Overcast
9:49 AM 69.8 °F 69.8 °F 100% 30.13 in 8.0 mi NE 6.9 mph - N/A   Overcast
9:50 AM 69.8 °F 69.8 °F 100% 30.13 in 6.0 mi NE 6.9 mph - N/A Rain Light Rain
9:58 AM 70.0 °F 69.3 °F 98% 30.14 in 3.0 mi NE 6.9 mph - 0.00 in Rain Light Rain
10:01 AM 69.8 °F 69.8 °F 100% 30.13 in 2.5 mi NE 8.1 mph - N/A Rain Light Rain
10:04 AM 69.8 °F 69.8 °F 100% 30.13 in 3.0 mi NE 8.1 mph - N/A Rain Light Rain
10:11 AM 69.8 °F 69.8 °F 100% 30.13 in 10.0 mi NE 8.1 mph - N/A   Overcast
10:14 AM 69.8 °F 69.8 °F 100% 30.13 in 10.0 mi NE 6.9 mph - N/A   Overcast
10:35 AM 71.6 °F 69.8 °F 94% 30.14 in 10.0 mi ENE 6.9 mph - N/A   Overcast
10:58 AM 71.4 °F 70.9 °F 98% 30.15 in 10.0 mi NE 6.9 mph - 0.02 in   Overcast
11:11 AM 71.6 °F 71.6 °F 100% 30.14 in 10.0 mi ENE 8.1 mph - N/A Rain Light Rain
11:21 AM 71.6 °F 71.6 °F 100% 30.14 in 9.0 mi ENE 9.2 mph - N/A   Overcast
11:22 AM 71.6 °F 71.6 °F 100% 30.14 in 8.0 mi NE 9.2 mph - N/A Rain Light Rain
11:56 AM 73.4 °F 71.6 °F 94% 30.14 in 7.0 mi NE 8.1 mph - N/A   Overcast
11:58 AM 73.0 °F 72.3 °F 98% 30.15 in 7.0 mi NE 8.1 mph - 0.01 in   Overcast
12:49 PM 75.2 °F 73.4 °F 94% 30.12 in 10.0 mi East 8.1 mph - N/A   Overcast
12:52 PM 75.2 °F 75.2 °F 100% 30.12 in 10.0 mi East 6.9 mph - N/A   Overcast
12:58 PM 75.2 °F 75.2 °F 100% 30.13 in 10.0 mi ENE 9.2 mph - 0.00 in   Overcast
1:07 PM 77.0 °F 75.2 °F 94% 30.11 in 10.0 mi ENE 8.1 mph - N/A   Mostly Cloudy
1:13 PM 77.0 °F 75.2 °F 94% 30.11 in 10.0 mi ENE 9.2 mph - N/A   Mostly Cloudy
1:16 PM 77.0 °F 75.2 °F 94% 30.11 in 10.0 mi East 11.5 mph - N/A   Mostly Cloudy
1:19 PM 77.0 °F 75.2 °F 94% 30.11 in 10.0 mi East 10.4 mph - N/A   Mostly Cloudy
1:46 PM 78.8 °F 75.2 °F 89% 30.10 in 10.0 mi East 9.2 mph - N/A   Mostly Cloudy
1:49 PM 78.8 °F 75.2 °F 89% 30.10 in 10.0 mi ENE 11.5 mph - N/A   Mostly Cloudy
1:52 PM 78.8 °F 75.2 °F 89% 30.10 in 10.0 mi ENE 9.2 mph - N/A   Mostly Cloudy
1:58 PM 78.6 °F 74.8 °F 88% 30.11 in 10.0 mi East 9.2 mph - N/A   Mostly Cloudy
2:01 PM 78.8 °F 75.2 °F 89% 30.10 in 10.0 mi ENE 6.9 mph - N/A   Mostly Cloudy
2:04 PM 78.8 °F 75.2 °F 89% 30.10 in 10.0 mi ENE 5.8 mph - N/A   Mostly Cloudy
2:10 PM 78.8 °F 75.2 °F 89% 30.10 in 10.0 mi NE 6.9 mph - N/A   Mostly Cloudy
2:43 PM 78.8 °F 75.2 °F 89% 30.09 in 10.0 mi NE 5.8 mph - N/A   Mostly Cloudy
2:46 PM 78.8 °F 75.2 °F 89% 30.09 in 10.0 mi NE 8.1 mph - N/A   Mostly Cloudy
2:52 PM 78.8 °F 75.2 °F 89% 30.09 in 10.0 mi NE 6.9 mph - N/A   Mostly Cloudy
2:58 PM 78.8 °F 75.2 °F 89% 30.10 in 10.0 mi ENE 6.9 mph - N/A   Mostly Cloudy
3:05 PM 78.8 °F 75.2 °F 89% 30.08 in 10.0 mi ENE 8.1 mph - N/A Rain Light Rain
3:27 PM 78.8 °F 73.4 °F 83% 30.07 in 10.0 mi ENE 8.1 mph - N/A   Scattered Clouds
3:58 PM 79.9 °F 73.8 °F 81% 30.07 in 10.0 mi NNE 5.8 mph - 0.00 in   Mostly Cloudy
4:46 PM 78.8 °F 75.2 °F 89% 30.06 in 10.0 mi Variable 2.3 mph - N/A   Mostly Cloudy
4:50 PM 78.8 °F 75.2 °F 89% 30.07 in 10.0 mi South 6.9 mph - N/A Rain Light Rain
4:56 PM 77.0 °F 73.4 °F 89% 30.07 in 10.0 mi ESE 12.7 mph 18.4 mph N/A Rain Light Rain
4:58 PM 77.7 °F 72.9 °F 85% 30.08 in 10.0 mi ESE 12.7 mph 18.4 mph 0.00 in Rain Light Rain
5:01 PM 75.2 °F 73.4 °F 94% 30.08 in 0.5 mi SE 13.8 mph 18.4 mph N/A Rain Rain
5:09 PM 73.4 °F 73.4 °F 100% 30.08 in 0.2 mi ENE 13.8 mph 18.4 mph N/A Fog , Rain Heavy Rain
5:14 PM 73.4 °F 71.6 °F 94% 30.08 in 0.5 mi ENE 6.9 mph - N/A Fog , Rain Heavy Rain
5:17 PM 71.6 °F 71.6 °F 100% 30.08 in 1.0 mi NE 10.4 mph - N/A Fog , Rain Heavy Rain
5:20 PM 71.6 °F 71.6 °F 100% 30.08 in 1.0 mi NE 8.1 mph - N/A Fog , Rain Heavy Rain
5:24 PM 71.6 °F 71.6 °F 100% 30.08 in 0.8 mi NE 8.1 mph - N/A Rain Heavy Rain
5:30 PM 71.6 °F 71.6 °F 100% 30.09 in 0.8 mi NNE 6.9 mph - N/A Rain Heavy Rain
5:33 PM 71.6 °F 71.6 °F 100% 30.09 in 0.8 mi North 5.8 mph - N/A Rain Rain
5:36 PM 71.6 °F 71.6 °F 100% 30.09 in 1.0 mi North 4.6 mph - N/A Rain Rain
5:39 PM 71.6 °F 71.6 °F 100% 30.09 in 1.5 mi North 3.5 mph - N/A Rain Rain
5:45 PM 73.4 °F 71.6 °F 94% 30.09 in 1.8 mi NNE 6.9 mph - N/A Rain Heavy Rain
5:48 PM 71.6 °F 71.6 °F 100% 30.09 in 2.0 mi NNE 5.8 mph - N/A Rain Heavy Rain
5:51 PM 71.6 °F 71.6 °F 100% 30.08 in 2.5 mi North 5.8 mph - N/A Rain Rain
5:54 PM 71.6 °F 71.6 °F 100% 30.08 in 3.0 mi North 6.9 mph - N/A Rain Rain
5:58 PM 72.3 °F 71.8 °F 98% 30.09 in 3.0 mi North 5.8 mph - 1.35 in Rain Heavy Rain
6:04 PM 71.6 °F 71.6 °F 100% 30.08 in 1.8 mi North 4.6 mph - N/A Rain Heavy Rain
6:07 PM 73.4 °F 71.6 °F 94% 30.08 in 1.0 mi North 6.9 mph - N/A Rain Rain
6:10 PM 73.4 °F 71.6 °F 94% 30.08 in 1.0 mi NNW 6.9 mph - N/A Rain Rain
6:13 PM 73.4 °F 71.6 °F 94% 30.08 in 1.0 mi North 6.9 mph - N/A Rain Rain
6:16 PM 73.4 °F 71.6 °F 94% 30.08 in 1.5 mi NNE 3.5 mph - N/A Rain Light Rain
6:19 PM 73.4 °F 71.6 °F 94% 30.08 in 2.5 mi East 2.3 mph - N/A Rain Light Rain
6:22 PM 73.4 °F 71.6 °F 94% 30.08 in 4.0 mi NE 1.2 mph - N/A Rain Light Rain
6:25 PM 73.4 °F 73.4 °F 100% 30.08 in 3.0 mi Calm Calm - N/A Rain Light Rain
6:28 PM 73.4 °F 73.4 °F 100% 30.08 in 3.0 mi Variable 2.3 mph - N/A Rain Light Rain
6:31 PM 73.4 °F 73.4 °F 100% 30.08 in 3.0 mi North 2.3 mph - N/A Rain Light Rain
6:43 PM 73.4 °F 73.4 °F 100% 30.08 in 10.0 mi NNW 2.3 mph - N/A Rain Light Rain
6:46 PM 73.4 °F 73.4 °F 100% 30.08 in 10.0 mi NW 2.3 mph - N/A Rain Light Rain
6:58 PM 73.8 °F 73.2 °F 98% 30.09 in 10.0 mi NNW 2.3 mph - 0.27 in Rain Light Rain
7:04 PM 73.4 °F 73.4 °F 100% 30.08 in 10.0 mi NNW 3.5 mph - N/A Rain Light Rain
7:07 PM 73.4 °F 73.4 °F 100% 30.08 in 10.0 mi NNW 4.6 mph - N/A Rain Light Rain
7:08 PM 73.4 °F 73.4 °F 100% 30.08 in 10.0 mi NNW 3.5 mph - N/A   Overcast
7:14 PM 73.4 °F 73.4 °F 100% 30.08 in 10.0 mi North 4.6 mph - N/A   Overcast
7:17 PM 73.4 °F 73.4 °F 100% 30.08 in 10.0 mi NNE 4.6 mph - N/A   Overcast
7:35 PM 73.4 °F 73.4 °F 100% 30.09 in 10.0 mi NNE 8.1 mph - N/A   Overcast
7:58 PM 73.9 °F 73.4 °F 98% 30.10 in 10.0 mi NNE 8.1 mph - 0.01 in   Overcast
8:26 PM 73.4 °F 73.4 °F 100% 30.10 in 10.0 mi NNE 6.9 mph - N/A Rain Light Rain
8:35 PM 73.4 °F 73.4 °F 100% 30.10 in 7.0 mi NE 5.8 mph - N/A Rain Light Rain
8:56 PM 73.4 °F 73.4 °F 100% 30.10 in 6.0 mi Variable 1.2 mph - N/A Rain Light Rain
8:58 PM 73.6 °F 73.0 °F 98% 30.11 in 6.0 mi Variable 1.2 mph - 0.25 in Rain Light Rain
9:25 PM 73.4 °F 73.4 °F 100% 30.11 in 9.0 mi NNE 6.9 mph - N/A Rain Light Rain
9:31 PM 73.4 °F 73.4 °F 100% 30.11 in 9.0 mi NNE 5.8 mph - N/A Rain Light Rain
9:34 PM 73.4 °F 73.4 °F 100% 30.11 in 8.0 mi NE 5.8 mph - N/A Rain Light Rain
9:40 PM 73.4 °F 71.6 °F 94% 30.11 in 7.0 mi NNE 6.9 mph - N/A Rain Light Rain
9:43 PM 73.4 °F 71.6 °F 94% 30.11 in 6.0 mi NE 6.9 mph - N/A Rain Light Rain
9:49 PM 73.4 °F 71.6 °F 94% 30.11 in 5.0 mi NE 6.9 mph - N/A Rain Light Rain
9:55 PM 73.4 °F 71.6 °F 94% 30.12 in 4.0 mi NE 6.9 mph - N/A Rain Light Rain
9:58 PM 73.0 °F 72.5 °F 98% 30.13 in 4.0 mi NE 5.8 mph - 0.11 in Rain Rain
10:27 PM 73.4 °F 71.6 °F 94% 30.11 in 10.0 mi NNE 4.6 mph - N/A   Scattered Clouds
10:48 PM 73.4 °F 71.6 °F 94% 30.12 in 10.0 mi NNE 1.2 mph - N/A   Mostly Cloudy
10:54 PM 73.4 °F 71.6 °F 94% 30.11 in 10.0 mi NNE 3.5 mph - N/A   Mostly Cloudy
10:58 PM 72.9 °F 72.3 °F 98% 30.12 in 10.0 mi North 3.5 mph - 0.04 in   Mostly Cloudy
11:04 PM 73.4 °F 71.6 °F 94% 30.12 in 10.0 mi Variable 1.2 mph - N/A   Overcast
11:10 PM 73.4 °F 71.6 °F 94% 30.12 in 10.0 mi North 2.3 mph - N/A   Overcast
11:19 PM 73.4 °F 71.6 °F 94% 30.11 in 10.0 mi North 5.8 mph - N/A   Overcast
11:34 PM 73.4 °F 71.6 °F 94% 30.11 in 10.0 mi North 3.5 mph - N/A   Overcast
11:58 PM 72.7 °F 72.1 °F 98% 30.12 in 10.0 mi NNW 3.5 mph - N/A   Overcast